Location: Newark
(49.8969°N, 3.3422°E)
Time: 19:14:29
(UTC+00:00)

A-11 Canister half - Pass Details

Date: 01 February 2020
Orbit: 1517 x 1683 km, 47.2° (Epoch: 17 February)

Event Time Altitude Azimuth Distance (km) Brightness Sun altitude
Rises 23:46:07 0° 260° (W) 4,749 - -57.0°
Reaches altitude 10° 23:49:13 10° 259° (W) 3,746 - -57.1°
Maximum altitude 23:58:37 77° 176° (S) 1,568 - -57.1°
Drops below altitude 10° 00:07:51 10° 93° (E) 3,679 - -57.1°
Sets 00:10:52 0° 92° (E) 4,662 - -57.1°
